Weather at custom point

    39°02′52″N   77°28′22″W   America/New_York
temp.,
°C
wind,
m/s
gust,
m/s
humid.,
%
clouds,
%
prec.,
mm/h
press.,
hPa
HPBL,
m
12 may, wed
wed1223:00+11nnw6114665 0.0 1023842
02:00+7nnw4115548 0.0 1025554
05:00+5nw31162100 0.0 1025436
08:00+7nw51161100 0.0 1027763
11:00+11n4657100 0.0 10261208
14:00+15n464878 0.0 10241997
17:00+16ene24479 0.0 10231549
20:00+12wnw116546 0.0 102410
13 may, thu
thu1323:00+9nnw257664 0.1 1025108
02:00+7nw257964 0.1 1026111
05:00+6nnw23822 0.0 102664
08:00+9nw34680 0.0 1028202
11:00+15nnw44440 0.0 10271240
14:00+17n45417 0.0 10262079
17:00+16ne444830 0.0 10241051
20:00+12nne11653 0.0 102510
14 may, fri
fri1423:00+9nw22738 0.0 102625
02:00+8nw227715 0.0 102527
05:00+7nw22809 0.0 102623
08:00+11nw237239 0.1 1027179
11:00+17n225480 0.0 1027925
14:00+18nne2246100 0.1 10251853
17:00+19nne124662 0.0 10241607
20:00+13ne117092 0.0 102412
15 may, sat
sat1523:00+10wnw22815 0.0 102616
02:00+8nw11853 0.0 102513
05:00+7nw11860 0.0 102611
08:00+12wnw12725 0.0 1027146
11:00+19nnw115135 0.0 10261003
14:00+21nne1237100 0.0 10252522
17:00+20n224297 0.0 10231371
20:00+16ene24604 0.0 102483
16 may, sun
sun1623:00+11ssw23774 0.0 102547
02:00+9sw22824 0.0 102526
05:00+9wnw119243 0.6 102611
08:00+12nw11855 0.8 1027121
11:00+19s1358100 0.0 1026803
14:00+22ssw3445100 0.0 10242407
17:00+18ssw5106599 0.1 1024466
20:00+15sse368077 0.4 1024139